Overview Statistics Trail Chart Weather Telemetry Raw packets
 

This is the latest recevied weather packets stored in our database for station/object N1SU-13. If no packets are shown the sender has not sent any weather packets the latest 10 day(s).

<< 35 36 37 38 39 40 41 >>
Time Temp. Humidity Pressure Rain* Wind** Luminosity Snow
1788153798 14.44° C 74% 1016.5 hPa - - - -
1788153126 14.44° C 73% 1016.5 hPa - - - -
1788152454 14.44° C 73% 1016.6 hPa - - - -
1788151803 15° C 72% 1016.7 hPa - - - -
1788151121 15° C 71% 1016.7 hPa - - - -
1788150549 15.56° C 70% 1016.6 hPa - - - -
1788149886 15.56° C 69% 1016.6 hPa - - - -
1788149218 16.11° C 68% 1016.6 hPa - - - -
1788148564 16.11° C 66% 1016.6 hPa - - - -
1788147865 16.11° C 65% 1016.4 hPa - - - -
1788147461 16.67° C 65% 1016.4 hPa - - - -
1788147231 16.67° C 64% 1016.3 hPa - - - -
1788146705 16.67° C 63% 1016.3 hPa - - - -
1788146660 16.67° C 63% 1016.3 hPa - - - -
1788146328 17.22° C 63% 1016.2 hPa - - - -
1788146063 17.22° C 62% 1016.3 hPa - - - -
1788145361 17.78° C 62% 1016 hPa - - - -
1788145303 17.78° C 62% 1016.1 hPa - - - -
1788144777 18.33° C 61% 1016 hPa - - - -
1788144180 18.89° C 60% 1016 hPa - - - -
1788143624 18.89° C 57% 1016 hPa - - - -
1788143036 19.44° C 56% 1016.1 hPa - - - -
1788142413 20° C 53% 1016.1 hPa - - - -
1788141803 20.56° C 51% 1016 hPa - - - -
1788141171 20° C 52% 1016.1 hPa - - - -

* Rain since midnight (hover to see other rain measurements)
** Current wind speed in m/s (hover to see current wind gust speed)